User: anonymous   Login
Location: Unspecified
(0.0000°N, 0.0000°E)
Time: 21:39:24
(UTC+01:00)
Language:

Milstar 3 Cent rocket - Orbit

View from above orbital plane
View from above orbital plane
View from above satellite
View from above satellite

Ground track
Ground track

The orbit data is extracted from the following two-line orbital elements,

1 25725U 99023B   17170.94233572 0.00000000  00000-0  00000-0 0    08
2 25725  28.3201 123.0862 2379418  22.5579 337.4415  9.67231076    03
Epoch (UTC): 19 June 2017 22:36:57
Eccentricity: 0.2379418
inclination: 28.3201°
perigee height: 713 km
apogee height: 5141 km
right ascension of ascending node: 123.0862°
argument of perigee: 22.5579°
revolutions per day: 9.67231076
mean anomaly at epoch: 337.4415°
orbit number at epoch: 0

The dashed part of the orbit path shows where the satellite is in the earth's shadow,  

DLR